TimeMDT,TemperatureF,Dew PointF,Humidity,Sea Level PressureIn,VisibilityMPH,Wind Direction,Wind SpeedMPH,Gust SpeedMPH,PrecipitationIn,Events,Conditions,WindDirDegrees,DateUTC
12:15 AM,17.6,3.2,53,-9999,10.0,West,16.1,26.5,N/A,,Clear,260,2013-03-22 06:15:00
12:35 AM,15.8,5.0,62,-9999,10.0,West,17.3,26.5,N/A,,Clear,260,2013-03-22 06:35:00
12:55 AM,15.8,3.2,58,-9999,10.0,West,16.1,23.0,N/A,,Clear,260,2013-03-22 06:55:00
1:15 AM,15.8,3.2,58,-9999,10.0,West,15.0,23.0,N/A,,Clear,260,2013-03-22 07:15:00
1:35 AM,15.8,3.2,58,-9999,10.0,West,13.8,20.7,N/A,,Clear,260,2013-03-22 07:35:00
1:55 AM,14.0,3.2,62,-9999,10.0,WSW,9.2,-,N/A,,Clear,250,2013-03-22 07:55:00
2:15 AM,15.8,1.4,53,-9999,10.0,West,6.9,-,N/A,,Clear,260,2013-03-22 08:15:00
2:35 AM,14.0,1.4,57,-9999,10.0,West,4.6,-,N/A,,Clear,280,2013-03-22 08:35:00
2:55 AM,14.0,1.4,57,-9999,10.0,West,6.9,-,N/A,,Clear,260,2013-03-22 08:55:00
3:15 AM,14.0,1.4,57,-9999,10.0,West,5.8,-,N/A,,Clear,270,2013-03-22 09:15:00
3:35 AM,14.0,1.4,57,-9999,10.0,WNW,5.8,-,N/A,,Clear,290,2013-03-22 09:35:00
4:15 AM,14.0,3.2,62,-9999,10.0,WNW,5.8,-,N/A,,Clear,290,2013-03-22 10:15:00
4:35 AM,12.2,3.2,67,-9999,10.0,WNW,4.6,-,N/A,,Clear,290,2013-03-22 10:35:00
4:55 AM,12.2,3.2,67,-9999,10.0,West,3.5,-,N/A,,Clear,270,2013-03-22 10:55:00
5:15 AM,12.2,3.2,67,-9999,10.0,SW,3.5,-,N/A,,Clear,230,2013-03-22 11:15:00
5:35 AM,12.2,3.2,67,-9999,10.0,WSW,8.1,-,N/A,,Clear,250,2013-03-22 11:35:00
5:55 AM,10.4,3.2,73,-9999,10.0,WSW,8.1,-,N/A,,Clear,250,2013-03-22 11:55:00
6:15 AM,10.4,3.2,73,-9999,10.0,WSW,6.9,-,N/A,,Clear,250,2013-03-22 12:15:00
6:35 AM,10.4,1.4,67,-9999,10.0,West,5.8,-,N/A,,Clear,260,2013-03-22 12:35:00
7:15 AM,12.2,1.4,62,-9999,10.0,West,8.1,-,N/A,,Scattered Clouds,260,2013-03-22 13:15:00
7:35 AM,10.4,1.4,67,-9999,10.0,West,6.9,-,N/A,,Clear,260,2013-03-22 13:35:00
8:15 AM,12.2,1.4,62,-9999,10.0,West,9.2,-,N/A,,Scattered Clouds,270,2013-03-22 14:15:00
8:35 AM,12.2,3.2,67,-9999,10.0,West,10.4,-,N/A,,Clear,260,2013-03-22 14:35:00
9:15 AM,14.0,1.4,57,-9999,10.0,West,4.6,-,N/A,,Clear,260,2013-03-22 15:15:00
9:35 AM,15.8,1.4,53,-9999,10.0,West,9.2,-,N/A,,Clear,270,2013-03-22 15:35:00
9:55 AM,17.6,1.4,49,-9999,10.0,West,8.1,-,N/A,,Scattered Clouds,270,2013-03-22 15:55:00
10:15 AM,17.6,-0.4,45,-9999,10.0,West,6.9,-,N/A,,Overcast,260,2013-03-22 16:15:00
10:35 AM,17.6,5.0,58,-9999,10.0,ENE,4.6,-,N/A,,Overcast,60,2013-03-22 16:35:00
10:55 AM,17.6,6.8,63,-9999,7.0,North,3.5,-,N/A,,Overcast,10,2013-03-22 16:55:00
11:15 AM,15.8,10.4,79,-9999,0.8,NNE,3.5,-,N/A,Snow,Light Snow,20,2013-03-22 17:15:00
11:35 AM,15.8,10.4,79,-9999,4.0,East,3.5,-,N/A,Snow,Light Snow,80,2013-03-22 17:35:00
11:55 AM,15.8,10.4,79,-9999,0.8,South,5.8,-,N/A,Snow,Light Snow,170,2013-03-22 17:55:00
12:15 PM,14.0,10.4,86,-9999,0.5,South,3.5,-,N/A,Snow,Light Snow,180,2013-03-22 18:15:00
12:35 PM,14.0,12.2,93,-9999,0.2,ESE,3.5,-,N/A,Snow,Heavy Snow,110,2013-03-22 18:35:00
12:55 PM,14.0,12.2,93,-9999,0.5,NE,8.1,-,N/A,Snow,Light Snow,50,2013-03-22 18:55:00
1:15 PM,14.0,12.2,93,-9999,0.2,NNE,6.9,-,N/A,Snow,Snow,30,2013-03-22 19:15:00
1:35 PM,14.0,12.2,93,-9999,0.5,NE,5.8,-,N/A,Snow,Light Snow,40,2013-03-22 19:35:00
2:15 PM,14.0,12.2,93,-9999,0.5,North,5.8,-,N/A,Snow,Light Snow,360,2013-03-22 20:15:00
2:35 PM,15.8,12.2,86,-9999,0.2,NNE,3.5,-,N/A,Snow,Snow,20,2013-03-22 20:35:00
2:55 PM,17.6,12.2,79,-9999,4.0,NE,6.9,-,N/A,Snow,Light Snow,40,2013-03-22 20:55:00
3:15 PM,17.6,12.2,79,-9999,1.5,NE,9.2,-,N/A,Snow,Light Snow,40,2013-03-22 21:15:00
3:35 PM,17.6,12.2,79,-9999,3.0,NNE,11.5,-,N/A,Snow,Light Snow,30,2013-03-22 21:35:00
3:55 PM,15.8,12.2,86,-9999,4.0,NE,11.5,-,N/A,,Overcast,40,2013-03-22 21:55:00
4:15 PM,14.0,10.4,86,-9999,3.0,NNE,10.4,-,N/A,Snow,Light Snow,30,2013-03-22 22:15:00
4:35 PM,14.0,10.4,86,-9999,7.0,NNE,10.4,-,N/A,,Overcast,30,2013-03-22 22:35:00
4:55 PM,14.0,10.4,86,-9999,10.0,NNE,6.9,-,N/A,,Overcast,20,2013-03-22 22:55:00
5:15 PM,14.0,12.2,93,-9999,10.0,NNE,5.8,-,N/A,,Overcast,20,2013-03-22 23:15:00
5:35 PM,14.0,12.2,93,-9999,7.0,NNE,9.2,-,N/A,,Overcast,30,2013-03-22 23:35:00
6:15 PM,14.0,12.2,93,-9999,3.0,NNE,10.4,-,N/A,Snow,Light Snow,30,2013-03-23 00:15:00
6:35 PM,14.0,12.2,93,-9999,1.0,NNE,8.1,-,N/A,Snow,Light Snow,20,2013-03-23 00:35:00
6:55 PM,14.0,10.4,86,-9999,3.0,NNE,6.9,-,N/A,Snow,Light Snow,30,2013-03-23 00:55:00
7:15 PM,14.0,10.4,86,-9999,7.0,NNE,8.1,-,N/A,,Overcast,30,2013-03-23 01:15:00
7:35 PM,14.0,10.4,86,-9999,3.0,NNE,9.2,-,N/A,Snow,Light Snow,20,2013-03-23 01:35:00
7:55 PM,14.0,10.4,86,-9999,10.0,NNE,8.1,-,N/A,,Overcast,30,2013-03-23 01:55:00
8:15 PM,14.0,12.2,93,-9999,5.0,NNE,9.2,-,N/A,Snow,Light Snow,20,2013-03-23 02:15:00
8:35 PM,14.0,10.4,86,-9999,4.0,NNE,5.8,-,N/A,Snow,Light Snow,20,2013-03-23 02:35:00
8:55 PM,14.0,10.4,86,-9999,1.2,NNE,5.8,-,N/A,Snow,Light Snow,30,2013-03-23 02:55:00
9:15 PM,12.2,10.4,92,-9999,0.8,North,6.9,-,N/A,Snow,Light Snow,10,2013-03-23 03:15:00
9:35 PM,12.2,10.4,92,-9999,1.2,NNE,8.1,-,N/A,Snow,Light Snow,20,2013-03-23 03:35:00
10:15 PM,12.2,10.4,92,-9999,0.2,NNE,9.2,-,N/A,Snow,Snow,30,2013-03-23 04:15:00
10:35 PM,12.2,10.4,92,-9999,0.2,NNE,9.2,-,N/A,Snow,Heavy Snow,20,2013-03-23 04:35:00
10:55 PM,12.2,10.4,92,-9999,0.2,NNE,11.5,-,N/A,Snow,Heavy Snow,30,2013-03-23 04:55:00
11:15 PM,12.2,10.4,92,-9999,0.5,North,11.5,20.7,N/A,Snow,Light Snow,10,2013-03-23 05:15:00
11:35 PM,12.2,10.4,92,-9999,0.8,NNE,12.7,20.7,N/A,Snow,Light Snow,20,2013-03-23 05:35:00
11:55 PM,12.2,10.4,92,-9999,0.5,NNE,11.5,-,N/A,Snow,Light Snow,20,2013-03-23 05:55:00